Location: Holyhead Bay
(53.3667°N, 4.6667°W)
Time: 05:56:46
(UTC+00:00)

SL-16 R/B - Pass Details

Date: 24 November 2020
Orbit: 841 x 849 km, 71.0° (Epoch: 23 January)

Event Time Altitude Azimuth Distance (km) Brightness Sun altitude
Rises 20:14:17 0° 235° (SW) 3,391 5.8 -35.6°
Reaches altitude 10° 20:16:52 10° 242° (WSW) 2,459 5.1 -35.9°
Enters shadow 20:20:37 35° 274° (W) 1,342 3.6 -36.5°
